Weather History for Greybull, WY

Change the Weather History Date:

Friday, November 23, 2012

  Actual Average Record
Temperature  
Mean Temperature 28 °F 26 °F  
Max Temperature 39 °F 38 °F 56 °F (1998)
Min Temperature 17 °F 14 °F -14 °F (2003)
Degree Days  
Heating Degree Days 37 39  
Month to date heating degree days 744  
Since 1 July heating degree days 1566  
Cooling Degree Days 0 0  
Month to date cooling degree days 0  
Year to date cooling degree days 669  
Moisture  
Dew Point 16 °F    
Average Humidity 65    
Maximum Humidity 84    
Minimum Humidity 35    
Precipitation  
Precipitation 0.00 in 0.01 in 0.69 in (2002)
Month to date precipitation 0.22  
Year to date precipitation 7.15  
Sea Level Pressure  
Sea Level Pressure 30.44 in    
Wind  
Wind Speed 2 mph (SSE)    
Max Wind Speed 7 mph    
Max Gust Speed -    
Visibility 10 miles    
Events      
T = Trace of Precipitation, MM = Missing Value Source: NWS Daily Summary

Daily Weather History Graph

Daily Weather History Graph

Search for Another Location

Airport:

Trip Planner

Search our weather history database for the weather conditions in past years. The results will help you decide how hot, cold, wet, or windy it might be!

Date:

Astronomy

Nov. 23, 2012 Rise Set
Actual Time 7:19 AM MST 4:37 PM MST
Civil Twilight 6:47 AM MST 5:09 PM MST
Nautical Twilight 6:11 AM MST 5:45 PM MST
Astronomical Twilight 5:36 AM MST 6:20 PM MST
Moon 2:01 PM MST (11/23) 2:32 AM MST (11/23)
Length of Visible Light 10h 22m
Length of Day
9h 17m
Waxing Gibbous, 80% of the Moon is Illuminated
Nov 23
Waxing Gibbous
Nov 28
Full
Dec 6
Last Quarter
Dec 13
New
Dec 19
First Quarter

Hourly Weather History & Observations

Time (MST) Temp. Windchill Dew Point Humidity Pressure Visibility Wind Dir Wind Speed Gust Speed Precip Events Conditions
12:53 AM 21.9 °F 15.7 °F 14.0 °F 72% 30.57 in 10.0 mi ESE 4.6 mph - N/A   Clear
1:53 AM 21.9 °F 15.7 °F 14.0 °F 72% 30.56 in 10.0 mi SE 4.6 mph - N/A   Clear
2:53 AM 18.0 °F - 12.9 °F 81% 30.57 in 10.0 mi Calm Calm - N/A   Clear
3:53 AM 17.1 °F - 12.9 °F 84% 30.56 in 10.0 mi Calm Calm - N/A   Clear
4:53 AM 17.1 °F - 12.0 °F 81% 30.58 in 10.0 mi Calm Calm - N/A   Clear
5:53 AM 18.0 °F 12.7 °F 12.9 °F 81% 30.57 in 10.0 mi ESE 3.5 mph - N/A   Clear
6:53 AM 17.1 °F - 12.9 °F 84% 30.58 in 10.0 mi Calm Calm - N/A   Clear
7:53 AM 17.1 °F 11.7 °F 12.9 °F 84% 30.58 in 10.0 mi SSE 3.5 mph - N/A   Clear
8:53 AM 21.0 °F - 15.1 °F 78% 30.58 in 10.0 mi Calm Calm - N/A   Clear
9:53 AM 24.1 °F - 17.1 °F 75% 30.56 in 10.0 mi Calm Calm - N/A   Clear
10:53 AM 30.9 °F - 18.0 °F 59% 30.53 in 10.0 mi Calm Calm - N/A   Clear
11:53 AM 36.0 °F 33.3 °F 18.0 °F 48% 30.48 in 10.0 mi Variable 3.5 mph - N/A   Clear
12:53 PM 37.9 °F 33.5 °F 16.0 °F 41% 30.42 in 10.0 mi South 5.8 mph - N/A   Clear
1:53 PM 39.9 °F 35.1 °F 15.1 °F 36% 30.38 in 10.0 mi South 6.9 mph - N/A   Clear
2:53 PM 39.9 °F 35.8 °F 14.0 °F 35% 30.37 in 10.0 mi South 5.8 mph - N/A   Clear
3:53 PM 39.0 °F 36.8 °F 16.0 °F 39% 30.36 in 10.0 mi SSE 3.5 mph - N/A   Clear
4:53 PM 35.1 °F 31.0 °F 17.1 °F 48% 30.35 in 10.0 mi South 4.6 mph - N/A   Clear
5:53 PM 36.0 °F - 16.0 °F 44% 30.32 in 10.0 mi Calm Calm - N/A   Clear
6:53 PM 30.9 °F - 19.9 °F 64% 30.32 in 10.0 mi Calm Calm - N/A   Clear
7:53 PM 32.0 °F - 19.9 °F 61% 30.31 in 10.0 mi Calm Calm - N/A   Clear
8:53 PM 30.9 °F - 21.0 °F 67% 30.29 in 10.0 mi Calm Calm - N/A   Clear
9:53 PM 28.9 °F - 21.0 °F 72% 30.26 in 10.0 mi Calm Calm - N/A   Clear
10:53 PM 28.9 °F - 21.9 °F 75% 30.24 in 10.0 mi Calm Calm - N/A   Clear
11:53 PM 28.0 °F 22.8 °F 21.9 °F 78% 30.20 in 10.0 mi SSE 4.6 mph - N/A   Clear